[[{"header":{"parameterUnit":"m.s-1","parameterCategory":1,"la1":30.2991,"la2":30.254,"lo1":-89.0895,"lo2":-89.0444,"dy":0.0017,"dx":0.0017,"nx":28,"ny":28,"refTime":"2024-09-26T09:00:00:Z","depth":0,"parameterNumber":2,"parameterNumberName":"U-component_of_WINDS"},"data":[0,0,0,0,0,0,0,0,0,0,0,0,0,0,0,0,0,0,0,0,0,0,0,0,0,0,0,0,0,0,0,0,0,0,0,0,0,0,0,0,0,0,0,0,0,0,0,0,0,0,0,0,0,0,0,0,0,0,4.2401,4.2402,0,4.2488,4.2489,4.249,4.2446,4.2443,4.2441,4.2439,4.2527,4.2531,4.2536,0,0,0,0,0,0,0,0,0,0,0,0,0,4.2197,4.2201,4.2401,4.2402,4.2403,4.2488,4.2489,4.249,4.2446,4.2443,4.244,4.2438,4.2525,4.2531,4.2536,0,0,0,0,0,0,0,0,0,0,0,0,0,4.2285,4.2202,4.2401,4.2391,4.2391,4.2488,4.2489,4.249,4.2446,4.2443,4.244,4.2436,4.2524,4.253,4.2537,4.2647,0,0,4.2557,4.256,0,0,0,0,0,0,0,0,4.228,4.2292,4.2392,4.2392,4.2392,4.2452,4.2449,4.2543,4.2447,4.2426,4.2439,4.2435,4.2505,4.2513,4.2537,4.2651,4.2655,4.2558,4.2562,4.2565,4.2567,0,0,0,0,0,0,0,4.2274,4.2288,4.2435,4.2393,4.2394,4.2383,4.2391,4.2467,4.2483,4.2427,4.2424,4.2435,4.2504,4.253,4.2538,4.2656,4.2558,4.2564,4.2568,4.2571,4.2866,4.287,0,0,0,0,0,0,4.2268,4.2283,4.2433,4.2438,4.2326,4.2389,4.2399,4.2437,4.2482,4.2486,4.2438,4.2433,4.2521,4.2531,4.2541,4.2674,4.2565,4.2571,4.2575,4.2863,4.2867,4.2871,0,0,0,0,0,0,4.2264,4.2282,4.2429,4.236,4.2378,4.2396,4.2439,4.244,4.2466,4.2491,4.2493,4.2461,4.2518,4.2532,4.2621,4.2676,4.2574,4.258,4.2858,4.2864,4.2869,4.2939,0,0,0,0,0,0,4.2258,4.2281,4.2323,4.2361,4.2382,4.2508,4.2442,4.2444,4.2478,4.2472,4.2513,4.2517,4.2517,4.2612,4.2628,4.2684,4.2586,4.2853,4.2861,4.2867,4.2932,4.2947,4.2959,0,0,0,0,0,4.2251,4.2339,4.2325,4.2343,4.2435,4.2511,4.2523,4.2521,4.2482,4.2525,4.2541,4.2516,4.2668,4.2621,4.2639,4.2698,4.285,4.2859,4.2867,4.2926,4.2944,4.2959,0,0,0,0,0,0,4.2305,4.2343,4.2329,4.2431,4.2468,4.2503,4.2557,4.254,4.2588,4.258,4.2576,4.2585,4.2678,4.2697,4.2644,4.2807,4.2753,4.2765,4.2791,4.2809,4.2822,4.2815,4.2591,0,0,0,0,0,4.2329,4.2388,4.2418,4.2506,4.2525,4.2538,4.2571,4.2567,4.2605,4.262,4.2642,4.268,4.2736,4.2774,4.2827,4.2935,4.2943,4.2984,4.2998,4.3009,4.3019,4.3078,4.3097,4.29,4.29,4.2899,0,0,4.2379,4.2407,4.2445,4.2517,4.2546,4.2607,4.2551,4.2618,4.2664,4.263,4.2716,4.2734,4.2776,4.2875,4.292,4.2894,4.3076,4.3019,4.3028,4.3033,4.3089,4.3108,4.3124,4.2905,4.2904,4.2903,0,0,4.2501,4.2528,4.2604,4.2634,4.2678,4.2686,4.2704,4.2743,4.2753,4.284,4.2816,4.287,4.2967,4.2998,4.3027,4.3162,4.3141,4.318,4.325,4.3307,4.3323,4.3337,4.3385,4.3402,4.319,4.3191,4.3191,0,4.2557,4.2649,4.2646,4.2715,4.2748,4.2721,4.2798,4.2827,4.2886,4.2909,4.2879,4.3001,4.3027,4.3133,4.3167,4.3191,4.3212,4.3174,4.3321,4.3335,4.3347,4.3393,4.3412,4.3195,4.3194,4.3194,4.3194,0,4.2716,4.278,4.2836,4.2894,4.2933,4.3006,4.3014,4.3054,4.3047,4.3059,4.3147,4.3178,4.3237,4.3262,4.3255,4.3369,4.3351,4.3321,4.3266,4.3371,4.3414,4.3431,4.3201,4.32,4.3198,4.3197,0,0,4.2873,4.293,4.295,4.2976,4.3023,4.3073,4.3145,4.3203,4.3238,4.3279,4.334,4.3423,4.3396,4.3429,4.3425,4.3476,4.3582,4.344,4.3441,4.3465,4.3708,4.373,4.375,4.3568,4.3571,4.3574,4.3704,0,4.2998,4.3124,4.3124,4.324,4.3299,4.3276,4.3338,4.3374,4.3387,4.3439,4.3453,4.3513,4.3473,4.3492,4.3541,4.3558,4.363,4.3549,4.3624,4.3627,4.3613,4.3773,4.3796,4.3917,4.3721,4.3724,4.3726,0,4.316,4.3208,4.3331,4.337,4.3394,4.3451,4.3505,4.3555,4.3595,4.3601,4.3638,4.3627,4.3701,4.3645,4.3746,4.3691,4.3722,4.3735,4.3739,4.3746,4.3682,4.3783,4.3956,4.3974,4.3753,4.3751,4.3749,0,4.3263,4.3358,4.3443,4.3466,4.3514,4.3554,4.3576,4.3613,4.3648,4.3696,4.3719,4.3774,4.3804,4.3847,4.3852,4.3811,4.3954,4.3898,4.3961,4.3961,4.3991,4.3989,4.4171,4.4012,4.4012,4.4012,4.4011,0,4.3402,4.3478,4.349,4.3542,4.3627,4.3627,4.371,4.3728,4.3762,4.3817,4.38,4.3853,4.3856,4.391,4.3914,4.3998,4.4012,4.4018,4.4019,4.402,4.4019,4.4039,4.4031,4.4017,4.4016,4.4015,4.4014,0,4.353,4.3541,4.3633,4.3671,4.3682,4.3743,4.3775,4.3826,4.3838,4.3909,4.3925,4.3944,4.4007,4.4016,4.409,4.4093,4.4193,4.4184,4.4179,4.4178,4.424,4.4234,4.4441,4.4468,4.4292,4.4294,4.4295,0,4.3618,4.3676,4.372,4.3757,4.3781,4.3839,4.3876,4.3878,4.3916,4.3967,4.4012,4.4073,4.4122,4.4224,4.4245,4.4301,4.4294,4.4362,4.4302,4.4301,4.4294,4.4291,4.4296,4.4374,4.4376,4.4377,4.4378,0,4.3772,4.3775,4.3828,4.3884,4.3928,4.3972,4.4013,4.4044,4.4052,4.4096,4.416,4.4199,4.4275,4.4336,4.4392,4.4414,4.4398,4.4398,4.4415,4.4416,4.4411,4.4415,4.421,4.4392,4.4391,4.439,4.4389,4.4389,4.3883,4.3933,4.3973,4.4033,4.4064,4.4103,4.4153,4.4171,4.4225,4.4287,4.4285,4.4357,4.4396,4.447,4.4497,4.4552,4.453,4.4555,4.4561,4.4568,4.4574,4.4403,4.4563,4.4562,4.4562,4.4562,4.4561,0,4.4036,4.4061,4.4116,4.4175,4.4222,4.4203,4.4248,4.4289,4.4352,4.439,4.4439,4.4514,4.4574,4.4599,4.4658,4.4698,4.4692,4.4713,4.471,4.4715,4.459,4.4569,4.4717,4.4717,4.4717,4.4717,4.4717,4.4717,4.4122,4.4206,4.4214,4.4314,4.4338,4.4408,4.4435,4.4471,4.4502,4.4586,4.4636,4.4652,4.4686,4.4747,4.4801,4.4807,4.4829,4.4854,4.4857,4.474,4.4724,4.4709,4.4689,4.4859,4.4859,4.4977,4.4978,4.4979]},{"header":{"parameterUnit":"m.s-1","parameterCategory":1,"la1":30.2991,"la2":30.254,"lo1":-89.0895,"lo2":-89.0444,"dy":0.0017,"dx":0.0017,"nx":28,"ny":28,"refTime":"2024-09-26T09:00:00:Z","depth":0,"parameterNumber":3,"parameterNumberName":"V-component_of_WINDS"},"data":[0,0,0,0,0,0,0,0,0,0,0,0,0,0,0,0,0,0,0,0,0,0,0,0,0,0,0,0,0,0,0,0,0,0,0,0,0,0,0,0,0,0,0,0,0,0,0,0,0,0,0,0,0,0,0,0,0,0,-5.3248,-5.3251,0,-5.3519,-5.3522,-5.3525,-5.3525,-5.3522,-5.3518,-5.3515,-5.3794,-5.3804,-5.3815,0,0,0,0,0,0,0,0,0,0,0,0,0,-5.2731,-5.2741,-5.3248,-5.3251,-5.3255,-5.3519,-5.3522,-5.3526,-5.3526,-5.3522,-5.3517,-5.3513,-5.379,-5.3803,-5.3816,0,0,0,0,0,0,0,0,0,0,0,0,0,-5.2974,-5.2744,-5.3247,-5.3286,-5.3292,-5.3518,-5.3523,-5.3527,-5.3527,-5.3522,-5.3516,-5.3511,-5.3786,-5.3801,-5.3817,-5.4022,0,0,-5.3866,-5.3873,0,0,0,0,0,0,0,0,-5.2961,-5.2993,-5.3277,-5.3284,-5.3291,-5.3483,-5.3443,-5.3693,-5.3528,-5.3438,-5.3515,-5.3509,-5.3695,-5.3718,-5.378,-5.4035,-5.4047,-5.3868,-5.3878,-5.3884,-5.3889,0,0,0,0,0,0,0,-5.2944,-5.2982,-5.3355,-5.3281,-5.329,-5.3291,-5.332,-5.349,-5.3593,-5.3445,-5.3446,-5.3478,-5.3697,-5.3765,-5.3787,-5.4051,-5.3867,-5.3882,-5.3892,-5.3898,-5.449,-5.4496,0,0,0,0,0,0,-5.2919,-5.2968,-5.3347,-5.3363,-5.311,-5.3304,-5.3337,-5.3427,-5.3591,-5.3611,-5.3482,-5.3477,-5.374,-5.3768,-5.3797,-5.4049,-5.3884,-5.3899,-5.3909,-5.4484,-5.4491,-5.4498,0,0,0,0,0,0,-5.2908,-5.2953,-5.3336,-5.3166,-5.3215,-5.3319,-5.342,-5.3435,-5.3502,-5.3619,-5.3637,-5.3532,-5.3737,-5.3774,-5.3967,-5.4059,-5.3907,-5.3921,-5.4477,-5.4486,-5.4495,-5.4554,0,0,0,0,0,0,-5.2893,-5.2949,-5.3027,-5.3168,-5.3224,-5.3501,-5.3426,-5.3444,-5.353,-5.3526,-5.367,-5.3689,-5.3736,-5.3943,-5.3983,-5.4078,-5.3934,-5.4469,-5.4481,-5.4492,-5.4544,-5.4564,-5.4581,0,0,0,0,0,-5.2874,-5.3033,-5.3031,-5.3077,-5.3324,-5.3506,-5.3538,-5.3588,-5.3537,-5.3618,-5.3693,-5.3685,-5.4042,-5.3962,-5.4007,-5.4109,-5.4463,-5.4478,-5.4491,-5.4536,-5.456,-5.4581,0,0,0,0,0,0,-5.29,-5.3052,-5.3052,-5.326,-5.337,-5.3505,-5.3608,-5.3612,-5.3739,-5.3729,-5.3786,-5.3819,-5.4011,-5.4079,-5.3988,-5.4317,-5.4246,-5.427,-5.4265,-5.4289,-5.4307,-5.4288,-5.3947,0,0,0,0,0,-5.293,-5.3065,-5.319,-5.3362,-5.3417,-5.3503,-5.3584,-5.3613,-5.373,-5.3776,-5.3865,-5.3979,-5.4117,-5.4207,-5.434,-5.4554,-5.4586,-5.4646,-5.4664,-5.4679,-5.4699,-5.4819,-5.4847,-5.4543,-5.4543,-5.4543,0,0,-5.2993,-5.3093,-5.3174,-5.337,-5.3458,-5.3597,-5.3542,-5.3691,-5.3796,-5.3799,-5.3987,-5.4056,-5.4187,-5.4391,-5.4486,-5.4454,-5.479,-5.4696,-5.4707,-5.4719,-5.4836,-5.4864,-5.489,-5.4552,-5.4551,-5.4549,0,0,-5.318,-5.3268,-5.3422,-5.3512,-5.3647,-5.3704,-5.374,-5.3876,-5.3922,-5.4111,-5.4118,-5.4242,-5.4478,-5.4572,-5.465,-5.4874,-5.4872,-5.4915,-5.5011,-5.5128,-5.5152,-5.5173,-5.5255,-5.5283,-5.4934,-5.4935,-5.4935,0,-5.3242,-5.3451,-5.35,-5.3651,-5.3737,-5.3747,-5.3904,-5.3989,-5.4161,-5.422,-5.4182,-5.448,-5.4568,-5.4795,-5.485,-5.4913,-5.4958,-5.49,-5.5144,-5.5166,-5.5187,-5.5266,-5.5296,-5.4939,-5.4939,-5.4938,-5.4938,0,-5.3521,-5.3666,-5.3774,-5.394,-5.4039,-5.4191,-5.4265,-5.4359,-5.4379,-5.444,-5.4633,-5.474,-5.4896,-5.4951,-5.4973,-5.5183,-5.5159,-5.5132,-5.5063,-5.522,-5.5295,-5.5325,-5.4946,-5.4944,-5.4943,-5.4942,0,0,-5.3732,-5.3924,-5.3963,-5.4039,-5.4189,-5.4303,-5.4456,-5.4609,-5.4689,-5.4807,-5.4939,-5.5139,-5.5115,-5.5204,-5.5236,-5.5338,-5.551,-5.5299,-5.5302,-5.5336,-5.575,-5.5771,-5.5805,-5.5509,-5.5515,-5.552,-5.574,0,-5.3936,-5.4209,-5.4258,-5.4497,-5.4632,-5.4644,-5.4778,-5.4885,-5.4946,-5.5071,-5.5138,-5.528,-5.5237,-5.5291,-5.5392,-5.5468,-5.5595,-5.5452,-5.5634,-5.5639,-5.5602,-5.5844,-5.5866,-5.6068,-5.5769,-5.5774,-5.5778,0,-5.421,-5.4336,-5.4588,-5.4722,-5.478,-5.49,-5.5045,-5.5163,-5.5285,-5.5323,-5.5423,-5.5443,-5.5604,-5.5527,-5.5751,-5.5653,-5.573,-5.5778,-5.5787,-5.5807,-5.5719,-5.5872,-5.6134,-5.6165,-5.5824,-5.582,-5.5817,0,-5.4341,-5.4573,-5.4754,-5.4819,-5.4979,-5.5063,-5.5133,-5.525,-5.5339,-5.5466,-5.5524,-5.5668,-5.5747,-5.5858,-5.5917,-5.5855,-5.6137,-5.6064,-5.6174,-5.6173,-5.6234,-5.6229,-5.6514,-5.6281,-5.628,-5.628,-5.6279,0,-5.4564,-5.4719,-5.4816,-5.4927,-5.5101,-5.5156,-5.5327,-5.5396,-5.55,-5.5626,-5.5644,-5.5763,-5.5833,-5.5962,-5.6009,-5.6188,-5.6223,-5.6259,-5.627,-5.6258,-5.6254,-5.631,-5.6299,-5.6288,-5.6286,-5.6284,-5.6283,0,-5.474,-5.4811,-5.501,-5.5145,-5.5182,-5.5305,-5.5421,-5.553,-5.5591,-5.575,-5.5791,-5.5887,-5.604,-5.6109,-5.6297,-5.6329,-5.6534,-5.6534,-5.6493,-5.6497,-5.6604,-5.6594,-5.6936,-5.6984,-5.6717,-5.672,-5.6722,0,-5.4879,-5.4998,-5.5146,-5.5232,-5.5304,-5.5442,-5.5533,-5.5593,-5.5687,-5.5836,-5.5928,-5.6081,-5.6207,-5.645,-5.6537,-5.6682,-5.6687,-5.6797,-5.6709,-5.6694,-5.6691,-5.6684,-5.6697,-5.6813,-5.6816,-5.6818,-5.6819,0,-5.5118,-5.5147,-5.5278,-5.5422,-5.553,-5.5646,-5.5759,-5.5828,-5.5906,-5.6011,-5.6167,-5.6265,-5.6458,-5.661,-5.6761,-5.6834,-5.6841,-5.6846,-5.688,-5.687,-5.6842,-5.686,-5.6538,-5.6838,-5.6837,-5.6835,-5.6834,-5.6833,-5.5281,-5.5388,-5.5509,-5.5654,-5.5746,-5.5852,-5.5962,-5.6037,-5.6168,-5.633,-5.6357,-5.6524,-5.6645,-5.6847,-5.6926,-5.7058,-5.7032,-5.708,-5.7093,-5.7104,-5.7111,-5.6819,-5.7086,-5.7085,-5.7085,-5.7084,-5.7084,0,-5.5523,-5.5601,-5.5734,-5.5893,-5.6008,-5.6003,-5.6129,-5.6225,-5.6372,-5.6484,-5.6607,-5.6788,-5.6936,-5.7035,-5.7185,-5.7272,-5.7279,-5.731,-5.7305,-5.7322,-5.7125,-5.7082,-5.7302,-5.7302,-5.7302,-5.7301,-5.7301,-5.7301,-5.5662,-5.5844,-5.5887,-5.6115,-5.6193,-5.6356,-5.6429,-5.6528,-5.6617,-5.6818,-5.6941,-5.7004,-5.7112,-5.727,-5.7407,-5.7432,-5.7487,-5.7519,-5.7544,-5.7358,-5.7336,-5.7314,-5.7274,-5.753,-5.7531,-5.773,-5.7732,-5.7733]}]]